Regional Weather Roundup
Issued by NWS

Home | Current Version | Previous Version | Graphics & Text | Print | Product List | Glossary On
Versions: 1 2 3 4 5 6 7 8 9 10 11 12 13 14 15 16 17 18 19 20 21 22 23 24 25 26 27 28 29 30 31 32 33 34 35 36 37 38 39 40 41 42 43 44 45 46 47 48 49 50
025
ASUS43 KTOP 201608
RWRKS

WEATHER ROUNDUP FOR KANSAS
NATIONAL WEATHER SERVICE GOODLAND KS
1100 AM CDT THU JUL 20 2017

NOTE:  "FAIR" INDICATES FEW OR NO CLOUDS BELOW 12,000 FEET WITH NO
SIGNIFICANT WEATHER AND/OR OBSTRUCTIONS TO VISIBILITY.

KSZ001>006-013>018-027>032-041>047-201700-
NORTHWEST KANSAS

CITY           SKY/WX    TMP DP  RH WIND       PRES   REMARKS
GOODLAND       SUNNY     83  64  52 W5        30.06F
HAYS           SUNNY     95  66  38 SW15G23   30.00F HX  98
HILL CITY      SUNNY     92  64  39 W12       30.00F
RUSSELL        SUNNY     96  64  34 SW16      29.99S HX  98
$$

KSZ061>065-074>080-084>089-201700-
SOUTHWEST KANSAS

CITY           SKY/WX    TMP DP  RH WIND       PRES   REMARKS
DODGE CITY     SUNNY     91  62  37 SW16G24   30.07S
GARDEN CITY    SUNNY     88  63  43 SW17      30.07S
LIBERAL        SUNNY     91  62  37 SW16      30.10F
PRATT          SUNNY     92  62  36 SW15G23   30.05F
$$

KSZ066>073-081>083-090>101-201700-
SOUTHEAST KANSAS

CITY           SKY/WX    TMP DP  RH WIND       PRES   REMARKS
CHANUTE        SUNNY     92  71  50 S16       30.08S HX  98
COFFEYVILLE    SUNNY     90  73  57 S15       30.08S HX  98
HUTCHINSON     SUNNY     94  66  39 S15G21    30.03S HX  97
MEDICINE LODGE   N/A     92  65  40 S9        30.03F
NEWTON         SUNNY     93  69  45 S20G25    30.05F HX  98
PARSONS        SUNNY     90  72  55 SW13      30.09F HX  97
WICHITA INTL   SUNNY     92  69  47 S15G25    30.04S HX  97
WICHITA JABRA  SUNNY     92  69  47 S16       30.05S HX  97
WICHITA MCCONL SUNNY     90  69  48 SW18      30.05F
WINFIELD       SUNNY     92  69  47 S16G23    30.07F HX  97
$$

KSZ007>012-019>026-033>040-048>060-102>105-201700-
NORTHEAST KANSAS

CITY           SKY/WX    TMP DP  RH WIND       PRES   REMARKS
CONCORDIA      SUNNY     91  70  49 SW8       30.00S HX  96
EMPORIA        SUNNY     91  71  51 SW18      30.05R HX  97
LAWRENCE       SUNNY     92  74  55 S12       30.02F HX 101
MANHATTAN      SUNNY     94  71  47 SW15      30.00S HX 101
MARYSVILLE     SUNNY     91  70  49 W12       30.00S HX  97
OLATHE IND     SUNNY     89  73  59 S15G22    30.06R HX  97
OLATHE EXE     SUNNY     88  76  67 SW9       30.06S HX  99
SALINA         SUNNY     97  67  37 S14       30.00R HX 101
TOPEKA BILLARD SUNNY     91  75  59 S12       30.01S HX 101
TOPEKA FORBES  SUNNY     92  75  57 SW12      30.02S HX 103
$$




USA.gov is the U.S. government's official web portal to all federal, state and local government web resources and services.